TimeMST,TemperatureF,Dew PointF,Humidity,Sea Level PressureIn,VisibilityMPH,Wind Direction,Wind SpeedMPH,Gust SpeedMPH,PrecipitationIn,Events,Conditions,WindDirDegrees,DateUTC
12:15 AM,41.0,37.4,87,30.44,7.0,Calm,Calm,-,N/A,,Overcast,0,2013-02-24 07:15:00
12:35 AM,41.0,37.4,87,30.44,7.0,Calm,Calm,-,N/A,,Overcast,0,2013-02-24 07:35:00
12:55 AM,39.2,37.4,93,30.44,7.0,Calm,Calm,-,N/A,,Mostly Cloudy,0,2013-02-24 07:55:00
1:15 AM,41.0,39.2,93,30.44,7.0,Calm,Calm,-,N/A,,Mostly Cloudy,0,2013-02-24 08:15:00
1:35 AM,39.2,37.4,93,30.45,7.0,Calm,Calm,-,N/A,,Overcast,0,2013-02-24 08:35:00
1:55 AM,39.2,39.2,100,30.44,7.0,Calm,Calm,-,N/A,,Overcast,0,2013-02-24 08:55:00
2:15 AM,39.2,39.2,100,30.44,7.0,Calm,Calm,-,N/A,,Overcast,0,2013-02-24 09:15:00
2:35 AM,39.2,39.2,100,30.45,7.0,Calm,Calm,-,N/A,,Overcast,0,2013-02-24 09:35:00
2:55 AM,39.2,39.2,100,30.45,7.0,Calm,Calm,-,N/A,,Overcast,0,2013-02-24 09:55:00
3:15 AM,39.2,39.2,100,30.44,7.0,Calm,Calm,-,N/A,,Overcast,0,2013-02-24 10:15:00
3:35 AM,39.2,39.2,100,30.44,7.0,Calm,Calm,-,N/A,,Overcast,0,2013-02-24 10:35:00
3:55 AM,41.0,39.2,93,30.43,7.0,Calm,Calm,-,N/A,,Overcast,0,2013-02-24 10:55:00
4:15 AM,41.0,39.2,93,30.43,10.0,Calm,Calm,-,N/A,,Overcast,0,2013-02-24 11:15:00
4:35 AM,41.0,39.2,93,30.43,7.0,Calm,Calm,-,N/A,,Drizzle,0,2013-02-24 11:35:00
4:55 AM,41.0,39.2,93,30.43,5.0,Calm,Calm,-,0.01,Rain,Light Rain,0,2013-02-24 11:55:00
5:15 AM,41.0,39.2,93,30.42,7.0,Calm,Calm,-,N/A,Rain,Light Rain,0,2013-02-24 12:15:00
5:35 AM,41.0,39.2,93,30.41,7.0,ENE,3.5,-,N/A,Rain,Rain,60,2013-02-24 12:35:00
6:15 AM,41.0,39.2,93,30.42,7.0,Calm,Calm,-,N/A,,Overcast,0,2013-02-24 13:15:00
6:35 AM,39.2,39.2,100,30.42,7.0,Calm,Calm,-,N/A,,Overcast,0,2013-02-24 13:35:00
6:55 AM,39.2,39.2,100,30.41,10.0,Calm,Calm,-,N/A,,Overcast,0,2013-02-24 13:55:00
7:15 AM,39.2,39.2,100,30.41,7.0,Calm,Calm,-,N/A,,Overcast,0,2013-02-24 14:15:00
7:35 AM,39.2,39.2,100,30.41,7.0,Calm,Calm,-,N/A,,Overcast,0,2013-02-24 14:35:00
7:55 AM,39.2,39.2,100,30.40,7.0,Calm,Calm,-,N/A,,Overcast,0,2013-02-24 14:55:00
8:15 AM,39.2,39.2,100,30.40,7.0,Calm,Calm,-,N/A,,Overcast,0,2013-02-24 15:15:00
8:35 AM,39.2,39.2,100,30.40,7.0,Calm,Calm,-,N/A,,Overcast,0,2013-02-24 15:35:00
8:55 AM,41.0,39.2,93,30.40,7.0,Calm,Calm,-,N/A,,Overcast,0,2013-02-24 15:55:00
9:15 AM,41.0,41.0,100,30.40,7.0,Calm,Calm,-,N/A,,Overcast,0,2013-02-24 16:15:00
9:35 AM,41.0,41.0,100,30.40,10.0,Calm,Calm,-,N/A,,Overcast,0,2013-02-24 16:35:00
9:55 AM,42.8,41.0,93,30.40,10.0,Calm,Calm,-,N/A,,Overcast,0,2013-02-24 16:55:00
10:15 AM,42.8,39.2,87,30.40,10.0,Calm,Calm,-,N/A,,Overcast,0,2013-02-24 17:15:00
10:35 AM,44.6,41.0,87,30.39,10.0,Calm,Calm,-,N/A,,Overcast,0,2013-02-24 17:35:00
10:55 AM,46.4,41.0,81,30.39,10.0,Calm,Calm,-,N/A,,Overcast,0,2013-02-24 17:55:00
11:15 AM,48.2,41.0,76,30.38,10.0,SSE,9.2,-,N/A,,Overcast,160,2013-02-24 18:15:00
11:35 AM,48.2,41.0,76,30.37,10.0,South,9.2,-,N/A,,Overcast,170,2013-02-24 18:35:00
11:55 AM,48.2,39.2,71,30.37,10.0,SSE,8.1,-,N/A,,Overcast,160,2013-02-24 18:55:00
12:15 PM,48.2,41.0,76,30.37,10.0,South,5.8,-,N/A,,Overcast,180,2013-02-24 19:15:00
12:35 PM,50.0,41.0,71,30.36,10.0,South,5.8,-,N/A,,Overcast,190,2013-02-24 19:35:00
12:55 PM,50.0,39.2,66,30.36,10.0,SW,9.2,-,N/A,,Overcast,220,2013-02-24 19:55:00
1:15 PM,50.0,37.4,62,30.35,10.0,SSW,5.8,-,N/A,,Overcast,210,2013-02-24 20:15:00
1:35 PM,50.0,39.2,66,30.34,10.0,SSW,11.5,-,N/A,,Overcast,210,2013-02-24 20:35:00
1:55 PM,51.8,37.4,58,30.33,10.0,SSW,10.4,-,N/A,,Overcast,210,2013-02-24 20:55:00
2:15 PM,51.8,37.4,58,30.31,10.0,SSW,6.9,-,N/A,,Scattered Clouds,210,2013-02-24 21:15:00
2:35 PM,51.8,37.4,58,30.30,10.0,SW,12.7,-,N/A,,Mostly Cloudy,220,2013-02-24 21:35:00
2:55 PM,51.8,37.4,58,30.30,10.0,SW,8.1,-,N/A,,Overcast,230,2013-02-24 21:55:00
3:15 PM,51.8,37.4,58,30.29,10.0,SW,6.9,-,N/A,,Overcast,220,2013-02-24 22:15:00
3:35 PM,51.8,37.4,58,30.28,10.0,SW,10.4,-,N/A,,Overcast,230,2013-02-24 22:35:00
3:55 PM,51.8,37.4,58,30.27,10.0,SSW,9.2,17.3,N/A,,Mostly Cloudy,210,2013-02-24 22:55:00
4:15 PM,50.0,37.4,62,30.26,10.0,SSW,9.2,-,N/A,,Mostly Cloudy,210,2013-02-24 23:15:00
4:35 PM,50.0,37.4,62,30.26,10.0,SSW,9.2,-,N/A,,Overcast,210,2013-02-24 23:35:00
4:55 PM,50.0,39.2,66,30.25,10.0,SSW,8.1,-,N/A,,Overcast,200,2013-02-24 23:55:00
5:15 PM,50.0,39.2,66,30.25,10.0,South,8.1,-,N/A,,Overcast,190,2013-02-25 00:15:00
5:35 PM,50.0,37.4,62,30.24,10.0,SW,5.8,-,N/A,,Overcast,230,2013-02-25 00:35:00
5:55 PM,50.0,37.4,62,30.23,10.0,SSW,5.8,-,N/A,,Overcast,200,2013-02-25 00:55:00
6:15 PM,48.2,37.4,66,30.22,10.0,Calm,Calm,-,N/A,,Overcast,0,2013-02-25 01:15:00
6:35 PM,48.2,37.4,66,30.21,10.0,SSW,3.5,-,N/A,,Overcast,200,2013-02-25 01:35:00
7:15 PM,48.2,37.4,66,30.19,10.0,SSW,5.8,-,N/A,,Overcast,200,2013-02-25 02:15:00
7:35 PM,48.2,37.4,66,30.19,10.0,South,4.6,-,N/A,,Overcast,180,2013-02-25 02:35:00
7:55 PM,48.2,35.6,62,30.18,10.0,SSW,5.8,-,N/A,,Overcast,210,2013-02-25 02:55:00
8:15 PM,48.2,35.6,62,30.17,10.0,SSW,4.6,-,N/A,,Overcast,200,2013-02-25 03:15:00
8:35 PM,48.2,37.4,66,30.16,10.0,SE,3.5,-,N/A,,Overcast,130,2013-02-25 03:35:00
8:55 PM,46.4,37.4,71,30.14,10.0,Calm,Calm,-,N/A,,Overcast,0,2013-02-25 03:55:00
9:15 PM,48.2,33.8,58,30.13,10.0,South,8.1,-,N/A,,Overcast,180,2013-02-25 04:15:00
9:35 PM,48.2,32.0,54,30.13,10.0,South,8.1,-,N/A,,Overcast,180,2013-02-25 04:35:00
9:55 PM,48.2,32.0,54,30.13,10.0,South,9.2,-,N/A,,Overcast,180,2013-02-25 04:55:00
10:15 PM,46.4,37.4,71,30.12,7.0,South,11.5,23.0,N/A,,Light Drizzle,180,2013-02-25 05:15:00
10:35 PM,46.4,37.4,71,30.11,10.0,SE,8.1,-,N/A,,Overcast,140,2013-02-25 05:35:00
10:55 PM,46.4,39.2,76,30.09,10.0,SSE,10.4,-,N/A,,Light Drizzle,150,2013-02-25 05:55:00
11:15 PM,48.2,39.2,71,30.07,10.0,SE,9.2,-,N/A,,Overcast,140,2013-02-25 06:15:00
11:35 PM,48.2,41.0,76,30.07,7.0,South,8.1,-,N/A,,Drizzle,170,2013-02-25 06:35:00
11:55 PM,46.4,42.8,87,30.06,7.0,SSE,11.5,-,N/A,Rain,Light Rain,160,2013-02-25 06:55:00